User: anonymous   Login
Location: Sungai Jaoh
(2.9167°N, 113.9167°E)
Time: 19:07:28
(UTC+00:00)
Language:

Tiangong - Orbit

View from above orbital plane
View from above orbital plane
View from above satellite
View from above satellite

Ground track
Ground track

The orbit data is extracted from the following two-line orbital elements,

1 48274U 21035A   21294.58033811  .00011611  00000-0  13984-3 0  9991
2 48274  41.4650 232.2573 0005638 231.1453 299.1406 15.60655097 27466
Epoch (UTC): 21 October 2021 13:55:41
Eccentricity: 0.0005638
inclination: 41.4650°
perigee height: 382 km
apogee height: 389 km
right ascension of ascending node: 232.2573°
argument of perigee: 231.1453°
revolutions per day: 15.60655097
mean anomaly at epoch: 299.1406°
orbit number at epoch: 2746

The dashed part of the orbit path shows where the satellite is in the earth's shadow,  

DLR